Regional Weather Roundup
Issued by NWS

Home | Current Version | Previous Version | Graphics & Text | Print | Product List | Glossary Off
Versions: 1 2 3 4 5 6 7 8 9 10 11 12 13 14 15 16 17 18 19 20 21 22 23 24 25 26 27 28 29 30 31 32 33 34 35 36 37 38 39 40 41 42 43 44 45 46 47 48 49 50

000
ASUS43 KLSX 010659
RWRMO

WEATHER SUMMARY FOR MISSOURI
NATIONAL WEATHER SERVICE SPRINGFIELD MO
200 AM CDT SAT NOV 01 2014

NOTE: "FAIR" INDICATES FEW OR NO CLOUDS BELOW 12,000 FEET WITH NO
       SIGNIFICANT WEATHER AND/OR OBSTRUCTIONS TO VISIBILITY.
       CURRENT SKY AND/OR WEATHER CONDITIONS ARE NOT AVAILABLE FOR
       CHILLICOTHE AND FARMINGTON.

MOZ001>031-035>038-043-044-053-054-010800-
...NORTHERN AND WESTERN MISSOURI...

CITY           SKY/WX    TMP DP  RH WIND       PRES   REMARKS
KANSAS CTY INT PTCLDY    31  21  66 NE6       30.46S WCI  25
KANSAS C DTWN  PTCLDY    32  19  58 CALM      30.47S
LEE`S SUMMIT   CLEAR     32  20  61 NE7       30.46R WCI  26
ST JOSEPH      PTCLDY    24  18  77 NW5       30.48S WCI  18
CHILLICOTHE      N/A     29  21  72 N3        30.49S
KIRKSVILLE     CLEAR     26  20  77 N6        30.46S WCI  19

$$
MOZ066>068-077>081-088>096-101>105-010800-
...SOUTHWEST MISSOURI...

CITY           SKY/WX    TMP DP  RH WIND       PRES   REMARKS
SPRINGFIELD    CLEAR     30  19  63 N5        30.40F WCI  25
JOPLIN         CLEAR     30  23  75 NE3       30.44S

$$
MOZ032>034-039>042-045>050-055>058-069>072-010800-
...CENTRAL MISSOURI...

CITY           SKY/WX    TMP DP  RH WIND       PRES   REMARKS
COLUMBIA       CLEAR     28  21  75 N6        30.44R WCI  22
JEFFERSON CITY CLEAR     31  21  66 NW5       30.46R WCI  26
ROLLA          CLEAR     28  20  71 N7        30.39S WCI  21
SEDALIA        CLEAR     30  21  69 N6        30.47R WCI  24
WARRENSBURG    CLEAR     28  21  74 N5        30.46S WCI  23
OSAGE BEACH    CLEAR     30  19  64 N5        30.43R WCI  25

$$
MOZ051-052-059>065-010800-
...EAST CENTRAL MISSOURI...

CITY           SKY/WX    TMP DP  RH WIND       PRES   REMARKS
ST LOUIS INTL  NOT AVBL
SPIRIT OF STL  CLEAR     33  22  63 NW5       30.42R WCI  29
ST CHARLES     CLEAR     34  21  59 N12       30.42R WCI  25

$$
MOZ072>076-082>087-097>100-106>115-010800-
...SOUTH CENTRAL AND SOUTHEAST MISSOURI...

CITY           SKY/WX    TMP DP  RH WIND       PRES   REMARKS
CAPE GIRARDEAU CLEAR     35  22  58 N12       30.35R WCI  27
FARMINGTON     CLEAR     32  19  59 NW7       30.38R WCI  26
POPLAR BLUFF   CLEAR     33  21  61 NW7       30.37R WCI  27
WEST PLAINS    CLEAR     31  18  58 N6        30.38F WCI  25

$$



USA.gov is the U.S. government's official web portal to all federal, state and local government web resources and services.